Fort Lewis, WA

3:54 AM PDT on April 23, 2017 (GMT -0700)
Gray Army Air Field

Weather History for KGRF - January, 2014

Change the Weather History Date:

Monday, January 13, 2014

  Actual Average Record
Temperature  
Mean Temperature 48 °F -  
Max Temperature 50 °F 44 °F 55 °F (2016)
Min Temperature 46 °F 33 °F 17 °F (1997)
Degree Days  
Heating Degree Days 17    
Moisture  
Dew Point 48 °F    
Average Humidity 98    
Maximum Humidity 100    
Minimum Humidity 93    
Precipitation  
Precipitation 0.01 in - - ()
Sea Level Pressure  
Sea Level Pressure 30.52 in    
Wind  
Wind Speed 13 mph (South)    
Max Wind Speed 18 mph    
Max Gust Speed 26 mph    
Visibility 10 miles    
Events Rain    
Averages and records for this station are not official NWS values.
T = Trace of Precipitation, MM = Missing Value Source: NWS Daily Summary

Daily Weather History Graph

Daily Weather History Graph

Search for Another Location

Airport or City:

Trip Planner

Search our weather history database for the weather conditions in past years. The results will help you decide how hot, cold, wet, or windy it might be!

Date:

Astronomy

Jan. 13, 2014 Rise Set
Actual Time 7:53 AM PST 4:45 PM PST
Civil Twilight 7:18 AM PST 5:20 PM PST
Nautical Twilight 6:40 AM PST 5:58 PM PST
Astronomical Twilight 6:03 AM PST 6:34 PM PST
Moon 3:06 PM PST (1/13) 5:45 AM PST (1/13)
Length of Visible Light 10h 01m
Length of Day
8h 52m
Waxing Gibbous, 95% of the Moon is Illuminated
Jan 13
Waxing Gibbous
Jan 15
Full
Jan 23
Last Quarter
Jan 30
New
Feb 6
First Quarter

Hourly Weather History & Observations

Time (PST) Temp. Windchill Dew Point Humidity Pressure Visibility Wind Dir Wind Speed Gust Speed Precip Events Conditions
12:03 AM 48.2 °F - 48.2 °F 100% 30.37 in 10.0 mi SSE 11.5 mph - N/A   Overcast
12:58 AM 48.0 °F - 47.8 °F 99% 30.40 in 10.0 mi South 11.5 mph - N/A   Overcast
1:58 AM 48.0 °F - 47.8 °F 99% 30.41 in 10.0 mi South 17.3 mph 21.9 mph N/A   Overcast
2:13 AM 48.2 °F - 48.2 °F 100% 30.40 in 10.0 mi South 13.8 mph - N/A   Overcast
2:58 AM 48.2 °F - 47.7 °F 98% 30.44 in 10.0 mi South 15.0 mph - N/A   Overcast
3:58 AM 47.8 °F - 47.3 °F 98% 30.45 in 10.0 mi South 15.0 mph - N/A   Overcast
4:22 AM 48.2 °F - 46.4 °F 93% 30.43 in 10.0 mi South 10.4 mph 23.0 mph N/A   Light Drizzle
4:32 AM 48.2 °F - 46.4 °F 93% 30.44 in 10.0 mi South 12.7 mph 20.7 mph N/A   Overcast
4:53 AM 46.4 °F 41.1 °F 46.4 °F 100% 30.44 in 9.0 mi South 11.5 mph - N/A   Light Drizzle
4:58 AM 47.1 °F - 46.9 °F 99% 30.47 in 8.0 mi South 12.7 mph 18.4 mph 0.00 in   Light Drizzle
5:03 AM 46.4 °F 41.9 °F 46.4 °F 100% 30.45 in 10.0 mi South 9.2 mph 18.4 mph N/A   Overcast
5:18 AM 46.4 °F 40.7 °F 46.4 °F 100% 30.45 in 10.0 mi South 12.7 mph - N/A   Overcast
5:33 AM 46.4 °F 40.1 °F 46.4 °F 100% 30.45 in 10.0 mi South 15.0 mph 23.0 mph N/A   Overcast
5:34 AM 46.4 °F 39.5 °F 46.4 °F 100% 30.45 in 9.0 mi South 17.3 mph 23.0 mph N/A Rain Light Rain
5:39 AM 46.4 °F 40.1 °F 46.4 °F 100% 30.44 in 8.0 mi South 15.0 mph 23.0 mph N/A Rain Light Rain
5:44 AM 46.4 °F 40.1 °F 46.4 °F 100% 30.44 in 9.0 mi South 15.0 mph 23.0 mph N/A Rain Light Rain
5:46 AM 46.4 °F 40.4 °F 46.4 °F 100% 30.44 in 10.0 mi South 13.8 mph 20.7 mph N/A   Overcast
5:48 AM 46.4 °F 40.1 °F 46.4 °F 100% 30.44 in 10.0 mi South 15.0 mph 20.7 mph N/A Rain Light Rain
5:53 AM 46.4 °F 39.2 °F 46.4 °F 100% 30.43 in 10.0 mi South 18.4 mph 24.2 mph N/A Rain Light Rain
5:58 AM 46.9 °F - 46.8 °F 99% 30.44 in 10.0 mi South 18.4 mph 26.5 mph 0.01 in Rain Light Rain
5:59 AM 46.4 °F 39.2 °F 46.4 °F 100% 30.42 in 10.0 mi South 18.4 mph 26.5 mph N/A   Overcast
6:09 AM 46.4 °F 39.8 °F 46.4 °F 100% 30.44 in 10.0 mi South 16.1 mph 21.9 mph N/A   Overcast
6:58 AM 47.3 °F - 46.8 °F 98% 30.48 in 10.0 mi South 12.7 mph 23.0 mph 0.00 in   Overcast
7:28 AM 48.2 °F - 46.4 °F 93% 30.45 in 10.0 mi South 17.3 mph 23.0 mph N/A   Overcast
7:58 AM 46.4 °F 41.1 °F 46.4 °F 100% 30.50 in 10.0 mi South 11.5 mph - N/A   Overcast
8:03 AM 48.2 °F - 46.4 °F 93% 30.48 in 10.0 mi South 12.7 mph - N/A   Overcast
8:08 AM 48.2 °F - 46.4 °F 93% 30.49 in 10.0 mi South 10.4 mph - N/A   Overcast
8:13 AM 48.2 °F - 46.4 °F 93% 30.48 in 10.0 mi South 15.0 mph 19.6 mph N/A   Overcast
8:28 AM 48.2 °F - 46.4 °F 93% 30.48 in 10.0 mi South 15.0 mph - N/A   Overcast
8:33 AM 48.2 °F - 46.4 °F 93% 30.49 in 10.0 mi SSE 15.0 mph - N/A   Overcast
8:58 AM 47.5 °F - 46.2 °F 95% 30.52 in 10.0 mi SSE 12.7 mph - N/A   Overcast
9:57 AM 48.2 °F - 46.4 °F 93% 30.54 in 9.0 mi South 11.5 mph - N/A   Light Drizzle
9:58 AM 47.7 °F - 46.6 °F 96% 30.56 in 9.0 mi South 10.4 mph - N/A   Light Drizzle
10:23 AM 48.2 °F - 46.4 °F 93% 30.54 in 10.0 mi South 12.7 mph - N/A   Overcast
10:28 AM 48.2 °F - 46.4 °F 93% 30.54 in 10.0 mi South 11.5 mph - N/A Rain Light Rain
10:30 AM 48.2 °F - 46.4 °F 93% 30.54 in 9.0 mi South 12.7 mph - N/A   Overcast
10:32 AM 48.2 °F - 48.2 °F 100% 30.54 in 9.0 mi South 12.7 mph - N/A Rain Light Rain
10:37 AM 48.2 °F - 48.2 °F 100% 30.54 in 10.0 mi South 12.7 mph - N/A Rain Light Rain
10:42 AM 48.2 °F - 48.2 °F 100% 30.53 in 10.0 mi South 13.8 mph - N/A   Light Drizzle
10:44 AM 48.2 °F - 48.2 °F 100% 30.53 in 10.0 mi SSE 12.7 mph 20.7 mph N/A   Overcast
10:49 AM 48.2 °F - 48.2 °F 100% 30.54 in 10.0 mi South 11.5 mph 20.7 mph N/A   Overcast
10:54 AM 48.2 °F - 48.2 °F 100% 30.54 in 10.0 mi SSE 12.7 mph 20.7 mph N/A   Overcast
10:58 AM 48.0 °F - 47.8 °F 99% 30.55 in 10.0 mi SSE 15.0 mph 19.6 mph 0.00 in   Mostly Cloudy
11:08 AM 48.2 °F - 48.2 °F 100% 30.53 in 10.0 mi South 11.5 mph - N/A   Mostly Cloudy
11:58 AM 49.8 °F - 48.9 °F 97% 30.53 in 10.0 mi South 16.1 mph - N/A   Overcast
12:03 PM 50.0 °F - 48.2 °F 94% 30.51 in 10.0 mi SSW 15.0 mph - N/A   Overcast
12:13 PM 50.0 °F - 48.2 °F 94% 30.51 in 10.0 mi South 13.8 mph - N/A   Overcast
12:58 PM 49.8 °F - 49.5 °F 99% 30.54 in 10.0 mi South 13.8 mph - N/A   Overcast
1:33 PM 50.0 °F - 50.0 °F 100% 30.52 in 10.0 mi South 11.5 mph - N/A   Overcast
1:38 PM 50.0 °F - 50.0 °F 100% 30.52 in 9.0 mi South 10.4 mph - N/A   Overcast
1:39 PM 50.0 °F - 50.0 °F 100% 30.52 in 8.0 mi South 10.4 mph - N/A   Light Drizzle
1:44 PM 50.0 °F - 50.0 °F 100% 30.52 in 8.0 mi South 9.2 mph - N/A   Light Drizzle
1:47 PM 50.0 °F - 50.0 °F 100% 30.52 in 10.0 mi South 11.5 mph - N/A   Overcast
1:57 PM 50.0 °F - 50.0 °F 100% 30.53 in 10.0 mi South 9.2 mph - N/A   Overcast
1:58 PM 49.6 °F - 49.3 °F 99% 30.55 in 10.0 mi South 9.2 mph - 0.00 in   Overcast
2:13 PM 50.0 °F - 50.0 °F 100% 30.53 in 10.0 mi South 11.5 mph - N/A   Overcast
2:18 PM 50.0 °F - 50.0 °F 100% 30.52 in 10.0 mi South 13.8 mph - N/A   Overcast
2:58 PM 50.2 °F - 49.6 °F 98% 30.55 in 10.0 mi South 15.0 mph - N/A   Overcast
3:13 PM 50.0 °F - 50.0 °F 100% 30.53 in 10.0 mi South 13.8 mph 21.9 mph N/A   Mostly Cloudy
3:18 PM 50.0 °F - 50.0 °F 100% 30.54 in 10.0 mi South 12.7 mph 21.9 mph N/A   Mostly Cloudy
3:23 PM 50.0 °F - 50.0 °F 100% 30.54 in 10.0 mi South 13.8 mph - N/A   Mostly Cloudy
3:28 PM 50.0 °F - 50.0 °F 100% 30.54 in 10.0 mi South 11.5 mph 20.7 mph N/A   Scattered Clouds
3:58 PM 49.5 °F - 49.1 °F 99% 30.56 in 10.0 mi SSW 16.1 mph - N/A   Clear
4:58 PM 48.9 °F - 48.6 °F 99% 30.57 in 10.0 mi South 12.7 mph - N/A   Mostly Cloudy
5:33 PM 48.2 °F - 48.2 °F 100% 30.55 in 10.0 mi South 11.5 mph 24.2 mph N/A   Mostly Cloudy
5:38 PM 48.2 °F - 48.2 °F 100% 30.56 in 10.0 mi South 10.4 mph 24.2 mph N/A   Mostly Cloudy
5:58 PM 48.6 °F - 48.4 °F 99% 30.59 in 10.0 mi South 8.1 mph - N/A   Overcast
6:08 PM 48.2 °F - 48.2 °F 100% 30.57 in 10.0 mi South 8.1 mph - N/A   Overcast
6:43 PM 48.2 °F - 48.2 °F 100% 30.57 in 10.0 mi South 9.2 mph - N/A   Overcast
6:58 PM 48.6 °F - 48.4 °F 99% 30.59 in 10.0 mi SSW 11.5 mph 19.6 mph N/A   Overcast
7:28 PM 48.2 °F - 48.2 °F 100% 30.57 in 10.0 mi SSW 11.5 mph - N/A   Overcast
7:33 PM 48.2 °F - 48.2 °F 100% 30.58 in 10.0 mi South 9.2 mph - N/A   Overcast
7:58 PM 48.6 °F - 48.4 °F 99% 30.60 in 10.0 mi South 8.1 mph - N/A   Overcast
8:23 PM 48.2 °F - 48.2 °F 100% 30.59 in 10.0 mi South 9.2 mph 17.3 mph N/A   Overcast
8:33 PM 48.2 °F - 48.2 °F 100% 30.59 in 10.0 mi South 10.4 mph - N/A   Overcast
8:58 PM 48.4 °F - 48.2 °F 99% 30.60 in 10.0 mi South 6.9 mph - N/A   Overcast
9:53 PM 48.2 °F - 48.2 °F 100% 30.62 in 10.0 mi South 8.1 mph - N/A   Overcast
9:58 PM 48.4 °F - 48.2 °F 99% 30.64 in 10.0 mi South 9.2 mph - N/A   Overcast
10:18 PM 48.2 °F - 48.2 °F 100% 30.62 in 10.0 mi South 9.2 mph - N/A   Overcast
10:58 PM 48.0 °F - 47.8 °F 99% 30.65 in 10.0 mi South 8.1 mph - N/A   Overcast
11:03 PM 48.2 °F - 48.2 °F 100% 30.63 in 10.0 mi South 9.2 mph - N/A   Overcast
11:58 PM 48.4 °F - 47.8 °F 98% 30.65 in 10.0 mi SE 8.1 mph - N/A   Overcast